Weather History for KSGH - March, 2014

Change the Weather History Date:

Wednesday, March 19, 2014

  Actual Average (KDAY) Record (KDAY)
Temperature  
Mean Temperature 46 °F 42 °F  
Max Temperature 52 °F 51 °F 81 °F (2012)
Min Temperature 38 °F 32 °F 10 °F (1934)
Degree Days  
Heating Degree Days 20 24  
Month to date heating degree days 511  
Since 1 July heating degree days 4786  
Cooling Degree Days 0 0  
Month to date cooling degree days 0  
Year to date cooling degree days 0  
Moisture  
Dew Point 44 °F    
Average Humidity 89    
Maximum Humidity 100    
Minimum Humidity 76    
Precipitation  
Precipitation 0.18 in 0.11 in 2.63 in (1943)
Month to date precipitation 1.89  
Year to date precipitation 6.84  
Snow  
Snow 0.00 in 0.10 in 7.50 in (1906)
Month to date snowfall 2.5  
Since 1 July snowfall 21.8  
Snow Depth -    
Sea Level Pressure  
Sea Level Pressure 29.81 in    
Wind  
Wind Speed 14 mph (SW)    
Max Wind Speed 31 mph    
Max Gust Speed 40 mph    
Visibility 5 miles    
Events Rain    
T = Trace of Precipitation, MM = Missing Value Source: NWS Daily Summary

Daily Weather History Graph

Daily Weather History Graph

Search for Another Location

Airport or City:

Trip Planner

Search our weather history database for the weather conditions in past years. The results will help you decide how hot, cold, wet, or windy it might be!

Date:

Astronomy

Mar. 19, 2014 Rise Set
Actual Time 7:40 AM EDT 7:46 PM EDT
Civil Twilight 7:13 AM EDT 8:13 PM EDT
Nautical Twilight 6:42 AM EDT 8:44 PM EDT
Astronomical Twilight 6:10 AM EDT 9:16 PM EDT
Moon 11:03 PM EDT (3/19) 9:05 AM EDT (3/19)
Length of Visible Light 12h 59m
Length of Day
12h 06m
Waning Gibbous, 91% of the Moon is Illuminated
Mar 19
Waning Gibbous
Mar 23
Last Quarter
Mar 30
New
Apr 7
First Quarter
Apr 15
Full

Hourly Weather History & Observations

Time (EDT) Temp. Windchill Dew Point Humidity Pressure Visibility Wind Dir Wind Speed Gust Speed Precip Events Conditions
12:56 AM 41.9 °F 37.5 °F 36.9 °F 82% 29.86 in 9.0 mi SSE 6.9 mph - N/A   Clear
1:56 AM 43.0 °F 39.5 °F 36.9 °F 79% 29.86 in 9.0 mi South 5.8 mph - N/A   Mostly Cloudy
2:56 AM 43.9 °F 39.3 °F 37.9 °F 80% 29.85 in 9.0 mi South 8.1 mph - N/A   Scattered Clouds
3:11 AM 44.6 °F 40.7 °F 39.2 °F 81% 29.85 in 9.0 mi South 6.9 mph - N/A   Mostly Cloudy
3:56 AM 43.9 °F 39.3 °F 39.9 °F 86% 29.85 in 9.0 mi South 8.1 mph - N/A   Mostly Cloudy
4:56 AM 46.9 °F - 43.0 °F 86% 29.85 in 8.0 mi SSW 16.1 mph 21.9 mph N/A   Overcast
5:56 AM 46.9 °F - 41.9 °F 83% 29.85 in 9.0 mi South 12.7 mph 18.4 mph N/A   Overcast
6:56 AM 46.9 °F - 41.9 °F 83% 29.83 in 8.0 mi South 11.5 mph - N/A   Overcast
7:44 AM 46.4 °F 41.5 °F 42.8 °F 87% 29.83 in 4.0 mi SSW 10.4 mph - 0.01 in Rain Light Rain
7:56 AM 45.9 °F 39.4 °F 43.0 °F 90% 29.83 in 3.0 mi South 15.0 mph 19.6 mph 0.03 in Rain Light Rain
8:56 AM 45.9 °F 38.0 °F 43.0 °F 90% 29.80 in 3.0 mi South 20.7 mph 28.8 mph 0.05 in   Overcast
9:09 AM 46.4 °F 38.3 °F 44.6 °F 93% 29.77 in 2.5 mi South 23.0 mph 29.9 mph 0.02 in Rain Light Rain
9:33 AM 46.4 °F 38.7 °F 44.6 °F 93% 29.78 in 2.5 mi South 20.7 mph 29.9 mph 0.05 in Rain Light Rain
9:41 AM 46.4 °F 38.7 °F 44.6 °F 93% 29.77 in 3.0 mi South 20.7 mph 28.8 mph 0.05 in Rain Light Rain
9:56 AM 45.9 °F 39.4 °F 43.9 °F 93% 29.80 in 5.0 mi South 15.0 mph 23.0 mph 0.05 in Rain Light Rain
10:08 AM 46.4 °F 40.1 °F 44.6 °F 93% 29.79 in 6.0 mi South 15.0 mph 24.2 mph 0.00 in   Mostly Cloudy
10:56 AM 46.9 °F - 45.0 °F 93% 29.81 in 6.0 mi SSW 15.0 mph - 0.01 in   Overcast
11:11 AM 46.4 °F 40.7 °F 44.6 °F 93% 29.80 in 1.8 mi South 12.7 mph 23.0 mph 0.00 in Rain Light Rain
11:30 AM 46.4 °F 41.1 °F 46.4 °F 100% 29.79 in 3.0 mi SSW 11.5 mph - 0.00 in   Overcast
11:56 AM 46.9 °F - 45.0 °F 93% 29.80 in 3.0 mi South 15.0 mph - 0.00 in   Overcast
12:56 PM 47.8 °F - 45.9 °F 93% 29.79 in 3.0 mi SSW 18.4 mph 21.9 mph N/A   Overcast
1:33 PM 48.2 °F - 46.4 °F 93% 29.77 in 3.0 mi SSW 15.0 mph 28.8 mph 0.00 in Rain Light Rain
1:42 PM 48.2 °F - 46.4 °F 93% 29.77 in 3.0 mi SSW 16.1 mph 24.2 mph 0.00 in   Overcast
1:56 PM 47.8 °F - 46.9 °F 97% 29.78 in 2.5 mi SSW 16.1 mph - 0.00 in   Overcast
2:10 PM 48.2 °F - 46.4 °F 93% 29.76 in 3.0 mi SSW 19.6 mph 26.5 mph N/A   Overcast
2:19 PM 48.2 °F - 46.4 °F 93% 29.76 in 1.8 mi SSW 18.4 mph 26.5 mph 0.00 in Rain Light Rain
2:32 PM 48.2 °F - 46.4 °F 93% 29.76 in 3.0 mi SSW 18.4 mph 25.3 mph 0.00 in Rain Light Rain
2:56 PM 48.9 °F - 46.9 °F 93% 29.76 in 5.0 mi SW 18.4 mph 24.2 mph 0.00 in   Overcast
3:15 PM 48.2 °F - 46.4 °F 93% 29.74 in 1.8 mi SSW 17.3 mph 25.3 mph 0.00 in Rain Rain
3:30 PM 48.2 °F - 48.2 °F 100% 29.75 in 2.0 mi SW 23.0 mph 26.5 mph 0.02 in   Overcast
3:37 PM 48.2 °F - 48.2 °F 100% 29.75 in 4.0 mi SW 18.4 mph 29.9 mph 0.02 in   Overcast
3:45 PM 50.0 °F - 48.2 °F 94% 29.75 in 3.0 mi WSW 18.4 mph 31.1 mph 0.02 in Rain Light Rain
3:49 PM 50.0 °F - 48.2 °F 94% 29.75 in 1.8 mi WSW 18.4 mph 31.1 mph 0.03 in Rain Rain
3:56 PM 50.0 °F - 47.8 °F 92% 29.76 in 3.0 mi WSW 15.0 mph 26.5 mph 0.03 in Rain Light Rain
4:08 PM 51.8 °F - 48.2 °F 88% 29.75 in 5.0 mi WSW 21.9 mph 26.5 mph 0.00 in   Mostly Cloudy
4:56 PM 52.0 °F - 46.9 °F 83% 29.75 in 5.0 mi SW 17.3 mph - 0.00 in   Haze
5:07 PM 51.8 °F - 46.4 °F 82% 29.75 in 6.0 mi WSW 18.4 mph 25.3 mph N/A   Haze
5:33 PM 51.8 °F - 46.4 °F 82% 29.77 in 2.5 mi WSW 19.6 mph 27.6 mph 0.00 in Rain Light Rain
5:48 PM 50.0 °F - 46.4 °F 87% 29.77 in 4.0 mi WSW 20.7 mph 28.8 mph 0.00 in   Mostly Cloudy
5:56 PM 50.0 °F - 45.9 °F 86% 29.78 in 5.0 mi WSW 21.9 mph 28.8 mph 0.00 in   Overcast
6:05 PM 50.0 °F - 44.6 °F 82% 29.78 in 5.0 mi WSW 31.1 mph 38.0 mph 0.01 in   Haze
6:21 PM 48.2 °F - 42.8 °F 82% 29.80 in 5.0 mi WSW 26.5 mph 40.3 mph 0.01 in   Haze
6:56 PM 46.9 °F - 41.9 °F 83% 29.84 in 5.0 mi West 21.9 mph 34.5 mph 0.01 in   Haze
7:56 PM 45.9 °F 38.0 °F 38.8 °F 76% 29.88 in 7.0 mi West 20.7 mph - N/A   Overcast
8:56 PM 41.9 °F 32.8 °F 36.9 °F 82% 29.92 in 5.0 mi West 20.7 mph 28.8 mph N/A   Haze
9:56 PM 39.9 °F 30.0 °F 36.0 °F 86% 29.96 in 5.0 mi West 21.9 mph 26.5 mph N/A   Overcast
10:56 PM 39.9 °F 32.1 °F 34.9 °F 82% 29.98 in 5.0 mi West 13.8 mph - N/A   Haze
11:56 PM 38.8 °F 29.4 °F 34.0 °F 83% 29.99 in 5.0 mi West 18.4 mph 21.9 mph N/A   Haze